Location: Avebury
(53.1487°N, 106.9774°W)
Time: 14:16:21
(UTC+00:00)

Envisat - Pass Details

Date: 26 January 2022
Orbit: 764 x 765 km, 98.2° (Epoch: 22 May)

Event Time Altitude Azimuth Distance (km) Brightness Sun altitude
Rises 14:15:00 0° 5° (N) 3,245 6.1 -7.0°
Reaches altitude 10° 14:18:14 10° 344° (NNW) 2,314 5.1 -6.5°
Maximum altitude 14:21:02 15° 310° (NW) 1,976 4.5 -6.1°
Drops below altitude 10° 14:23:51 10° 276° (W) 2,307 4.9 -5.8°
Sets 14:27:05 0° 254° (WSW) 3,230 5.8 -5.3°
